Location: Newark
(51.5033°N, 0.1199°W)
Time: 08:41:25
(UTC+00:00)

PicSat - Pass Details

Date: 25 September 2019
Orbit: 486 x 499 km, 97.5° (Epoch: 14 October)

Event Time Altitude Azimuth Distance (km) Brightness Sun altitude
Exits shadow 21:14:36 16° 359° (N) 1,361 ? -29.7°
Drops below altitude 10° 21:15:29 10° 355° (N) 1,717 ? -29.8°
Sets 21:17:36 0° 351° (N) 2,607 ? -30.0°
